Regional Weather Roundup
Issued by NWS Newport/Morehead, NC

Home | Current Version | Previous Version | Text Only | Print | Product List | Glossary On
Versions: 1 2 3 4 5 6 7 8 9 10 11 12 13 14 15 16 17 18 19 20 21 22 23 24 25 26 27 28 29 30 31 32 33 34 35 36 37 38 39 40 41 42 43 44 45 46 47 48 49 50
000
ASUS42 KMHX 291922
RWRMHX
WEATHER ROUNDUP FOR EASTERN NORTH CAROLINA
NATIONAL WEATHER SERVICE NEWPORT/MOREHEAD CITY NC
300 PM EDT TUE JUL 29 2014

NOTE: "FAIR" INDICATES FEW OR NO CLOUDS BELOW 12,000 FEET
WITH NO SIGNIFICANT WEATHER AND/OR OBSTRUCTIONS TO VISIBILITY

NCZ015>017-031-032-045>047-102-103-292000-
NORTH COAST

CITY           SKY/WX    TMP DP  RH WIND       PRES   REMARKS
EDENTON        MOSUNNY   80  61  52 NW6       29.92F
ELIZABETH CITY PTSUNNY   79  65  62 VRB6      29.93S
KITTY HAWK     CLEAR     78  64  62 N6        29.92S
MANTEO         NOT AVBL

$$

NCZ045>047-081-094-103-104-292000-
CENTRAL COAST

CITY           SKY/WX    TMP DP  RH WIND       PRES   REMARKS
FRISCO         PTSUNNY   82  67  60 NE8       29.91F
SWANQUARTER      N/A     84 N/A N/A NW3       29.85F

$$

NCZ095-097-098-100-101-292000-
SOUTHERN COAST

CITY           SKY/WX    TMP DP  RH WIND       PRES   REMARKS
BEAUFORT       MOSUNNY   83  67  58 N9        29.90F
CEDAR ISLAND     N/A     82 N/A N/A NE5       29.94S
JACKSONVILLE   PTSUNNY   85  64  49 N8        29.90F
NEWPORT        NOT AVBL
PINEY ISLAND   PTCLDY    82  68  62 NE7       29.90
WILMINGTON     MOSUNNY   86  64  47 N3        29.89F


$$

NCZ011>013-027>030-043-044-078>080-089-090>093-098-292000-
COASTAL PLAIN

CITY           SKY/WX    TMP DP  RH WIND       PRES   REMARKS
AHOSKIE        SUNNY     78  56  46 N3        29.94S
CLINTON        MOSUNNY   83  63  50 E3        29.93S
ELIZABETHTOWN  MOSUNNY   85  58  39 W3        29.91S
GOLDSBORO      MOSUNNY   82  63  53 VRB2      29.91S
GREENVILLE     MOSUNNY   81  59  47 N9        29.95S
HAVELOCK       MOSUNNY   82  64  54 NE10      29.91F
KENANSVILLE    MOSUNNY   82  59  45 N5        29.93S
KINSTON        SUNNY     81  61  50 N7        29.93F
NEW BERN       MOSUNNY   85  65  51 E6        29.92S
RICHLANDS      MOSUNNY   84  63  48 W5        29.90F
ROANOKE RAPIDS NOT AVBL
ROCKY MOUNT    SUNNY     82  55  39 N7        29.94S
WASHINGTON     MOSUNNY   80  61  52 NW3       29.93S
WHITEVILLE     SUNNY     84  63  48 W5        29.91S

$$

AMZ130-135-150-152-154-156-158-170-250-252-270-ANZ085-086-088-633-658-670-292000-
MARINE OBSERVATIONS

STATION/POSITION TIME  TEMP    WIND        PRES    WAVE   SWELL
                       AIR SEA DIR/SP/G            HT/PER HT/PER
                 (UTC) (F)     (DEG/KT/KT) (MB)    (FT/S) (FT/S)
CHESAPEAKE LIGHT NOT AVBL
BUOY 44014       1900   74 79  360/  8/ 10 1013.4    3/ 5   2/ 5
DUCK             1900   74 71   30/ 10/ 11 1012.8
2E DUCK          1900                        N/A     2/ 4
OREGON INLET     1900   77 78   20/ 11/ 13 1013.1
BUOY 44095       1900      79                N/A     3/ 8
20E OREGON INLET NOT AVBL
HATTERAS CG      1900   78 80   20/ 11/ 14 1013.1
DIAMOND BUOY     1900          VRB 14/ 16  1012.4    4/ 8   3/ 8
CAPE LOOKOUT     1900   78      50/ 12/ 12 1012.4
BEAUFORT LAB     1900   81 82   30/  4/  8 1012.0
30 SE NEW RIVER  1900   79 81   30/ 12/ 14 1012.7    4/ 7   3/ 7
5 SE WRIGHTSVILL 1900   77 82   80/  8/ 10   N/A
BUOY 41002       1841   80 81  190/ 19/ 23 1013.5    6/ 8   3/ 8
BUOY 41004       1900   81 84   20/ 10/ 12 1011.7    4/ 6   3/ 6

$$



USA.gov is the U.S. government's official web portal to all federal, state and local government web resources and services.